This is the latest recevied weather packets stored in our database for station/object W4MLN-3. If no packets are shown the sender has not sent any weather packets the latest 10 day(s).
| Time | Temp. | Humidity | Pressure | Rain* | Wind** | Luminosity | Snow |
|---|---|---|---|---|---|---|---|
| 1788370503 | 31.67° C | 52% | 1023.8 hPa | 0 mm | - | - | - |
| 1788370203 | 32.22° C | 51% | 1023.8 hPa | 0 mm | - | - | - |
| 1788369945 | 32.22° C | 48% | 1023.9 hPa | 0 mm | - | - | - |
| 1788369603 | 32.22° C | 49% | 1023.9 hPa | 0 mm | - | - | - |
| 1788369303 | 32.22° C | 48% | 1023.9 hPa | 0 mm | - | - | - |
| 1788369003 | 32.22° C | 48% | 1024 hPa | 0 mm | - | - | - |
| 1788368703 | 32.22° C | 51% | 1024.1 hPa | 0 mm | - | - | - |
| 1788368424 | 32.22° C | 50% | 1024.2 hPa | 0 mm | - | - | - |
| 1788368103 | 32.22° C | 52% | 1024.1 hPa | 0 mm | - | - | - |
| 1788367803 | 32.22° C | 47% | 1024.1 hPa | 0 mm | - | - | - |
| 1788367503 | 31.67° C | 49% | 1024.1 hPa | 0 mm | - | - | - |
| 1788367203 | 31.67° C | 49% | 1024.3 hPa | 0 mm | - | - | - |
| 1788366903 | 31.67° C | 49% | 1024.3 hPa | 0 mm | - | - | - |
| 1788366603 | 31.67° C | 51% | 1024.3 hPa | 0 mm | - | - | - |
| 1788366303 | 31.67° C | 50% | 1024.3 hPa | 0 mm | - | - | - |
| 1788366024 | 31.67° C | 51% | 1024.4 hPa | 0 mm | - | - | - |
| 1788365724 | 31.67° C | 53% | 1024.4 hPa | 0 mm | - | - | - |
| 1788365404 | 31.11° C | 53% | 1024.4 hPa | 0 mm | - | - | - |
| 1788365103 | 31.11° C | 50% | 1024.4 hPa | 0 mm | - | - | - |
| 1788364803 | 31.11° C | 50% | 1024.5 hPa | 0 mm | - | - | - |
| 1788364503 | 31.11° C | 49% | 1024.5 hPa | 0 mm | - | - | - |
| 1788364204 | 31.11° C | 49% | 1024.5 hPa | 0 mm | - | - | - |
| 1788363603 | 31.11° C | 46% | 1024.6 hPa | 0 mm | - | - | - |
| 1788363324 | 31.11° C | 51% | 1024.6 hPa | 0 mm | - | - | - |
| 1788363003 | 30.56° C | 51% | 1024.6 hPa | 0 mm | - | - | - |
* Rain latest hour (hover to see other rain measurements)
** Current wind speed in m/s (hover to see current wind gust speed)